www.pogodaiklimat.ru

Погода и климат >> Архив погоды >> Россия >> Якутия >> Делянкир


ПОГОДА в Делянкире

  • Прогноз погоды в Делянкире
  • Монитор погоды в Делянкире
  • Климат города

АРХИВ ПОГОДЫ в Делянкире

Время (UTC), дата Ветер
(напр.,м/с)
 
Видим.   Явления Облачность Т
(С)
Тd
(С)
f
(%)
Тe
(С)
Тes
(С)
Комфортность P
(гПа)
Po
(гПа)
Тmin
(С)
Tmax
(С)
R
(мм)
R24
(мм)
S
(см)
00 12.12 штиль 0 50 км 3/0
[As trans]
-48.5 -51.8 68 -49 -49 опасность
обморожения
1037.2 919.4 -49.3
03 12.12 штиль 0 50 км 4/0
[As trans]
-45.9 -49.2 69 -46 -46 опасность
обморожения
1035.8 919.4
06 12.12 штиль 0 50 км 4/0
[As trans]
-45.9 -49.2 69 -46 -46 опасность
обморожения
1035.5 919.1
09 12.12 штиль 0 50 км 3/0
[As trans]
-48.7 -52.4 65 -49 -49 опасность
обморожения
1036.8 918.9 -45.9
12 12.12 штиль 0 50 км ясно -48.9 -52.4 67 -49 -49 опасность
обморожения
1036.7 918.7
15 12.12 штиль 0 50 км ясно -49.0 -52.4 67 -49 -49 опасность
обморожения
1036.6 918.6
18 12.12 штиль 0 50 км ясно -49.4 -52.4 71 -49 -49 опасность
обморожения
1036.4 918.3
21 12.12 штиль 0 50 км ясно -49.8 -52.4 74 -50 -50 опасность
обморожения
1036.6 918.3 -49.9 34
00 13.12 штиль 0 50 км ясно -49.9 -53.7 64 -50 -50 опасность
обморожения
1037.3 918.7 -50.1
03 13.12 штиль 0 50 км ясно -48.5 -51.8 68 -49 -48 опасность
обморожения
1035.4 917.7
06 13.12 штиль 0 50 км 3/0
[Ci fib]
-48.1 -51.8 65 -48 -48 опасность
обморожения
1034.3 917.0
09 13.12 штиль 0 50 км ясно -48.6 -53.0 60 -49 -49 опасность
обморожения
1034.5 916.9 -48.1
12 13.12 штиль 0 50 км ясно -49.6 -53.0 67 -50 -50 опасность
обморожения
1034.7 916.4
15 13.12 штиль 0 20 км слабый снег 10/0
[Cs]
-48.8 -53.0 61 -49 -49 опасность
обморожения
1033.3 915.8
18 13.12 штиль 0 50 км {снег} 6/0
[Cs]
-48.4 -51.8 68 -48 -48 опасность
обморожения
1032.6 915.4
21 13.12 штиль 0 50 км 4/0
[Cs]
-49.1 -53.0 63 -49 -49 опасность
обморожения
1032.3 914.7 -49.8 0.0 34
00 14.12 штиль 0 50 км 10/0
[As trans Cs]
-47.6 -51.2 66 -48 -48 опасность
обморожения
1030.8 914.2
03 14.12 штиль 0 50 км 4/0
[As trans]
-48.4 -51.2 72 -48 -48 опасность
обморожения
1030.6 913.6
06 14.12 штиль 0 50 км 3/0
[As trans]
-48.9 -52.4 67 -49 -49 опасность
обморожения
1030.0 912.8
09 14.12 штиль 0 50 км ясно -50.5 -53.7 69 -51 -51 опасность
обморожения
1030.0 912.0 -47.6
12 14.12 штиль 0 50 км 3/0
[As trans]
-50.4 -53.7 68 -50 -50 опасность
обморожения
1029.7 911.8
15 14.12 штиль 0 50 км ясно -51.2 -53.7 74 -51 -51 опасность
обморожения
1030.2 911.8
18 14.12 штиль 0 50 км ясно -51.8 -55.2 67 -52 -52 опасность
обморожения
1029.4 910.2
21 14.12 штиль 0 50 км ясно -52.1 -55.2 69 -52 -52 опасность
обморожения
1030.0 911.2 -52.3 34
00 15.12 штиль 0 50 км ясно -52.5 -55.2 72 -53 -53 опасность
обморожения
1030.3 911.3 -52.5
03 15.12 штиль 0 50 км 3/0
[Ci fib]
-50.5 -54.3 64 -51 -51 опасность
обморожения
1028.1 910.4
06 15.12 штиль 0 50 км 3/0
[As trans]
-50.6 -54.3 65 -51 -51 опасность
обморожения
1027.9 910.2
09 15.12 штиль 0 50 км ясно -51.6 -55.8 60 -52 -52 опасность
обморожения
1029.9 911.5 -50.5
12 15.12 штиль 0 50 км ясно -50.8 -54.3 66 -51 -51 опасность
обморожения
1029.4 911.4
15 15.12 штиль 0 50 км ясно -50.6 -54.3 65 -51 -51 опасность
обморожения
1029.5 911.5
18 15.12 штиль 0 50 км ясно -50.4 -54.3 63 -50 -50 опасность
обморожения
1029.7 911.8
21 15.12 штиль 0 50 км 3/0
[Ci fib]
-50.5 -54.3 64 -51 -51 опасность
обморожения
1029.8 911.8 -51.8 34
00 16.12 штиль 0 50 км 3/0
[Ci fib]
-50.1 -54.3 61 -50 -50 опасность
обморожения
1029.5 911.7
03 16.12 штиль 0 50 км 6/0
[As trans Ci fib]
-48.4 -51.2 72 -48 -48 опасность
обморожения
1028.3 911.5
06 16.12 штиль 0 50 км 6/0
[As trans Ci fib]
-48.0 -51.2 69 -48 -48 опасность
обморожения
1028.1 911.5
09 16.12 штиль 0 50 км ясно -48.5 -51.2 73 -49 -49 опасность
обморожения
1028.7 911.6 -48.4
12 16.12 штиль 0 50 км 3/0
[As trans]
-48.3 -51.2 72 -48 -48 опасность
обморожения
1028.4 911.6
15 16.12 штиль 0 50 км 10/0
[As trans Cs]
-46.4 -49.2 73 -46 -46 опасность
обморожения
1027.3 911.6
18 16.12 штиль 0 50 км 10/0
[Cs]
-46.0 -49.4 68 -46 -46 опасность
обморожения
1026.6 911.2
21 16.12 штиль 0 50 км 6/0
[Cs]
-48.0 -51.2 69 -48 -48 опасность
обморожения
1028.2 911.6 -48.7 34
00 17.12 штиль 0 50 км 3/0
[As trans]
-48.8 -52.4 66 -49 -49 опасность
обморожения
1028.7 911.7 -48.9
03 17.12 штиль 0 50 км 3/0
[As trans]
-47.7 -51.8 62 -48 -48 опасность
обморожения
1029.1 912.5
06 17.12 штиль 0 50 км 3/0
[As trans]
-48.8 -53.0 61 -49 -49 опасность
обморожения
1028.9 911.9
09 17.12 штиль 0 50 км ясно -49.8 -53.0 69 -50 -50 опасность
обморожения
1027.7 912.2 -47.7
12 17.12 СВ 1 50 км ясно -48.0 -51.8 65 -54 -54 опасность
обморожения
1029.4 912.5
15 17.12 штиль 0 50 км 10/0
[As trans Cs]
-47.8 -51.8 63 -48 -48 опасность
обморожения
1028.3 911.9
18 17.12 штиль 0 50 км 8/0
[As trans Cs]
-46.8 -50.8 63 -47 -47 опасность
обморожения
1025.7 911.6
21 17.12 штиль 0 50 км 10/0
[As trans Cs]
-44.3 -47.6 69 -44 -44 опасность
обморожения
1025.8 911.3 -50.0 34
00 18.12 штиль 0 50 км 10/0
[As trans Cs]
-44.9 -48.4 68 -45 -45 опасность
обморожения
1025.8 911.0
03 18.12 штиль 0 50 км 8/0
[As trans Cs]
-44.4 -47.6 70 -44 -44 опасность
обморожения
1023.9 909.5
06 18.12 штиль 0 50 км 6/0
[As trans Cs]
-45.8 -49.2 68 -46 -46 опасность
обморожения
1023.7 908.7
09 18.12 штиль 0 50 км 3/0
[As trans]
-48.0 -51.2 69 -48 -48 опасность
обморожения
1025.6 909.4 -44.4
12 18.12 штиль 0 50 км ясно -49.0 -53.0 63 -49 -49 опасность
обморожения
1026.1 909.4
15 18.12 штиль 0 50 км ясно -49.3 -53.0 65 -49 -49 опасность
обморожения
1026.3 909.4
18 18.12 штиль 0 50 км ясно -48.8 -53.0 61 -49 -49 опасность
обморожения
1025.5 908.9

 

Местоположение метеостанции Делянкир (Якутия, Россия): широта 63.83 долгота 145.60 высота над уровнем моря 801 м.

В архиве по умолчанию представлена погода в Делянкире за последнюю неделю. Архивные данные за месяц целиком и за предыдущие месяцы, начиная с января 2011 года, Вы можете получить, выбрав интересующий диапазон дат из раскрывающегося списка и нажав кнопку "Ввод!".


*Определитесь, кто Вы:
робот инопланетянин человек

Внимание! Время в таблицах - всемирное. Для получения местного времени необходимо прибавить поправку, которая в Делянкире равна 10 ч.

Смотрите также архив погоды в соседних городах и на ближайших метеорологических станциях:

Погода в Оймяконе (Якутия, Россия) (140 км)
Погода в Усть-Нере (Якутия, Россия) (144 км)
Погода в Сусумане (Магаданская область, Россия) (171 км)
Погода в Юртах (Якутия, Россия) (187 км)
Погода в Агаякане (Якутия, Россия) (201 км)
Погода в Колымской (Магаданская область, Россия) (242 км)
Погода в Ягодной (Магаданская область, Россия) (249 км)
Погода в Совхозе Эльген (Магаданская область, Россия) (275 км)
Погода в Озере Джека Лондона (Магаданская область, Россия) (277 км)
Погода в Восточной (Якутия, Россия) (305 км)

Пояснения к столбцам:

Ветер - указаны скорость ветра в м/с - средняя за 10 мин, порывы в срок и между сроками (в фигурных скобках) и направление, откуда дует ветер: С - северный, СВ - северо-восточный, В - восточный, ЮВ - юго-восточный, Ю - южный, ЮЗ - юго-западный, З - западный, СЗ - северо-западный.
Видимость - горизонтальная дальность видимости в метрах или километрах. При видимости от 1 до 10 км при отсутствии осадков обычно наблюдается дымка, при ухудшении видимости до 1 км и менее - туман. В сухую погоду видимость может ухудшаться дымом, пылью или мглою.
Явления - указаны атмосферные явления, наблюдавшиеся в срок или в последний час перед сроком; фигурными скобками обозначены явления, наблюдавшиеся между сроками (за 1-3 часа до срока); квадратными скобками обозначены град или гололедные отложения с указанием их диаметра в мм.
Облачность - указаны через наклонную черту общая и нижняя облачность в баллах и высота нижней границы облаков в метрах; квадратными скобками обозначены формы облаков: Ci - перистые, Cs - перисто-слоистые, Cc - перисто-кучевые, Ac - высококучевые, As - высокослоистые, Sc - слоисто-кучевые, Ns - слоисто-дождевые, Cu - кучевые, Cb - кучево-дождевые. Подробнее классификацию облаков см. в Атласе облаков (PDF).
T - Температура воздуха - температура, измеренная на высоте 2 м над землей.
Td - Температура точки росы - температура, при понижении до которой содержащийся в воздухе водяной пар достигнет насыщения.
f - Относительная влажность воздуха - влажноcть воздуха, измеренная на высоте 2 м над землей.
Te - Эффективная температура - температура, которую ощущает одетый по сезону человек в тени. Характеристика душности погоды. При расчете учитывается влияние влажности воздуха и скорости ветра на теплоощущения человека.
Tes - Эффективная температура на солнце - температура, которую ощущает человек, с поправкой на солнечный нагрев. Характеристика знойности погоды. Зависит от высоты солнца над горизонтом, облачности и скорости ветра. Ночью, в пасмурную погоду, а также при ветре 12 м/с и более поправка равна нулю.
P - Атмосферное давление - приведенное к уровню моря атмосферное давление.
Po - Атмосферное давление - измеренное на уровне метеостанции атмосферное давление.
Tmin - Минимальная температура - минимум температуры воздуха на высоте 2 м над землей.
Tmax - Максимальная температура - максимум температуры воздуха на высоте 2 м над землей.
R - Количество осадков - Количество выпавших осадков за период времени, мм. При наведении курсора мыши на число - период времени, за который выпало указанное количество осадков.
R24 - Количество осадков - Количество выпавших осадков за 24 часа, мм.
S - Снежный покров - Высота снежного покрова, см. При наведении курсора мыши на число - состояние снежного покрова и степень покрытия местности в баллах.